This demonstration page uses our WeatherBlox Daily Observations layout. Learn more.

Left ArrowRight Arrow

Hourly Observations for May 18, 2022

Temp ( °F °C ) Dew Point ( °F °C ) Humidity (%) Winds ( mph kmh ) Pressure ( in mb ) Visibility ( mi km ) Precip ( " mm )
12:52 am 00:52 Clear 67 19.4 56 13.3 68 68 SSE 16 26 29.82 1010 10 16 0.00 0.00
1:52 am 01:52 Clear 67 19.4 56 13.3 68 68 SSE 17 28 29.80 1009 10 16 0.00 0.00
2:10 am 02:10 Mostly Clear with Nearby Thunderstorms 66 18.9 58 14.4 75 75 SSE 15 24 29.81 1009 9 14 0.02 0.51
2:29 am 02:29 Mostly Clear with Light Rain 65 18.3 58 14.4 78 78 SSE 15 24 29.80 1009 10 16 0.02 0.51
2:52 am 02:52 Clear 66 18.9 58 14.4 75 75 SSE 16 26 29.78 1009 10 16 0.02 0.51
3:27 am 03:27 Mostly Cloudy with Light Rain 66 18.9 59 15 78 78 W 10 17 29.87 1011 10 16 0.00 0.00
3:37 am 03:37 Cloudy with Strong Thunderstorms 64 17.8 60 15.6 87 87 WNW 23 37 29.93 1014 5 8 0.00 0.00
3:46 am 03:46 Cloudy with Strong Thunderstorms 63 17 61 16 94 94 NW 15 24 29.91 1013 3 4 0.08 2.03
3:52 am 03:52 Cloudy with Thunderstorms 62 16.7 61 16.1 96 96 NW 10 17 29.90 1012 3 4 0.19 4.83
3:59 am 03:59 Cloudy with Thunderstorms 62 16.7 61 16.1 96 96 NW 5 7 29.90 1013 6 10 0.03 0.76
4:16 am 04:16 Cloudy with Nearby Thunderstorms 62 16.7 61 16.1 96 96 Calm 29.90 1013 10 16 0.04 1.02
4:42 am 04:42 Cloudy with Thunderstorms 62 16.7 61 16.1 96 96 SSE 12 19 29.87 1011 9 14 0.06 1.52
4:52 am 04:52 Cloudy with Nearby Thunderstorms 62 16.7 61 16.1 96 96 SSE 14 22 29.83 1010 8 13 0.06 1.52
5:42 am 05:42 Partly Cloudy 62 16.7 61 16.1 96 96 S 14 22 29.82 1010 10 16 0.01 0.25
5:52 am 05:52 Mostly Clear 62 16.7 61 16.1 96 96 S 13 20 29.80 1009 10 16 0.01 0.25
6:52 am 06:52 Sunny 63 17.2 61 16.1 93 93 S 9 15 29.81 1010 10 16 0.00 0.00
7:52 am 07:52 Mostly Cloudy with Light Rain 64 17.8 62 16.7 93 93 Calm 29.83 1010 10 16 0.00 0.00
8:52 am 08:52 Mostly Sunny 67 19.4 64 17.8 91 91 Calm 29.82 1010 10 16 0.00 0.00
9:42 am 09:42 Mostly Sunny 69 20.6 65 18.3 87 87 SSW 5 7 29.81 1010 10 16 0.00 0.00
9:52 am 09:52 Mostly Sunny 69 20.6 65 18.3 87 87 S 6 9 29.81 1010 10 16 0.00 0.00
10:52 am 10:52 Mostly Sunny 73 22.8 68 20 84 84 SSW 5 7 29.82 1010 10 16 0.00 0.00
11:52 am 11:52 Sunny 77 25 69 20.6 77 77 NW 7 11 29.82 1010 10 16 0.00 0.00
12:52 pm 12:52 Sunny 81 27.2 70 21.1 69 69 NW 8 13 29.83 1010 10 16 0.00 0.00
1:52 pm 13:52 Sunny 83 28.3 69 20.6 63 63 WNW 7 11 29.82 1010 10 16 0.00 0.00
2:52 pm 14:52 Sunny 84 28.9 67 19.4 57 57 undefined N/A 29.80 1009 10 16 0.00 0.00
3:52 pm 15:52 Sunny 85 29.4 68 20 57 57 NNW 7 11 29.80 1009 10 16 0.00 0.00
4:52 pm 16:52 Sunny 85 29.4 67 19.4 55 55 N 3 6 29.79 1009 10 16 0.00 0.00
5:52 pm 17:52 Sunny 84 28.9 65 18.3 53 53 NW 6 9 29.79 1009 10 16 0.00 0.00
6:52 pm 18:52 Sunny 83 28.3 62 16.7 49 49 NNW 5 7 29.78 1008 10 16 0.00 0.00
7:52 pm 19:52 Sunny 78 25.6 64 17.8 62 62 N 6 9 29.78 1009 10 16 0.00 0.00
8:52 pm 20:52 Clear 75 23.9 63 17.2 66 66 N 3 6 29.78 1009 10 16 0.00 0.00
9:52 pm 21:52 Clear 72 22.2 63 17.2 73 73 Calm 29.80 1009 10 16 0.00 0.00
10:52 pm 22:52 Clear 69 20.6 63 17.2 81 81 Calm 29.81 1010 10 16 0.00 0.00
11:52 pm 23:52 Mostly Clear 70 21.1 64 17.8 82 82 Calm 29.80 1009 10 16 0.00 0.00

Powered by AerisWeather